Regional Weather Roundup
Issued by NWS

Home | Current Version | Previous Version | Text Only | Print | Product List | Glossary On
Versions: 1 2 3 4 5 6 7 8 9 10 11 12 13 14 15 16 17 18 19 20 21 22 23 24 25 26 27 28 29 30 31 32 33 34 35 36 37 38 39 40 41 42 43 44 45 46 47 48 49 50
000
ASUS43 KBIS 290120
RWRND

NORTH DAKOTA REGIONAL WEATHER ROUNDUP
NATIONAL WEATHER SERVICE BISMARCK ND
800 PM CDT SAT MAR 28 2015

NOTE: "FAIR" INDICATES FEW OR NO CLOUDS BELOW 12,000 FEET WITH NO
SIGNIFICANT WEATHER AND/OR OBSTRUCTIONS TO VISIBILITY.


NDZ001>003-009>011-017-290200-
NORTHWEST NORTH DAKOTA

CITY           SKY/WX    TMP DP  RH WIND       PRES   REMARKS
WILLISTON      LGT RAIN  54  48  80 W24G39    29.55R
MINOT          LGT RAIN  61  44  53 SW13G28   29.44R
MINOT AFB      LGT RAIN  57  54  91 W10       29.42R
$$

NDZ018>021-031>035-040>046-290200-
SOUTHWEST NORTH DAKOTA

CITY           SKY/WX    TMP DP  RH WIND       PRES   REMARKS
BISMARCK       CLOUDY    62  36  37 S23G29    29.46F
DICKINSON      LGT RAIN  53  45  74 W33G43    29.61R
GARRISON         N/A     62  47  57 W28G37    29.47R
HETTINGER ARPT LGT RAIN  55  47  74 NW25G36   29.64R
$$

NDZ004>008-012>016-024-026-027-054-290200-
NORTHEAST NORTH DAKOTA

CITY           SKY/WX    TMP DP  RH WIND       PRES   REMARKS
GRAND FORKS    MOCLDY    48  31  51 S21G36    29.64F
GRND FRKS AFB  MOCLDY    47  32  55 S23G29    29.61F
DEVILS LAKE    CLOUDY    48  36  61 S23G31    29.50F
$$

NDZ022-023-025-028>030-036>039-047>053-290200-
SOUTHEAST NORTH DAKOTA

CITY           SKY/WX    TMP DP  RH WIND       PRES   REMARKS
FARGO          PTCLDY    50  29  44 S24G35    29.72F
JAMESTOWN      MOCLDY    49  33  54 S17G25    29.59F
$$



USA.gov is the U.S. government's official web portal to all federal, state and local government web resources and services.